sat.trackr.live / text

‹ back to catalog

PEAKSAT

NORAD 68416 · 2026-067A

PAYLOAD ACTIVE UNKNOWN

§ Identity

Operator
Country
GREC
Launch date
2026-03-30
Launch site
AFWTR
Launch vehicle
Mass (kg)
RCS (m²)

External: N2YO · Heavens-Above · Gunter

§ Orbital elements

Epoch: 2026-09-19T15:00:24.137568Z

Period
94.70 min
Inclination
97.4650°
Eccentricity
0.0001151
Mean motion
15.20512338 rev/d
Perigee alt
503.5 km
Apogee alt
505.1 km
Semi-major
6,882.4 km
B*
2.2743e-4
RAAN
220.1444°
Arg perigee
15.6469°
Mean anomaly
344.4802°
Rev number
2,629

§ Raw data

PEAKSAT1 68416U 26067A   26262.62527937  .00004903  00000+0  22743-3 0  99912 68416  97.4650 220.1444 0001151  15.6469 344.4802 15.20512338 26298

JSON: /api/v1/satellites/68416 · /tle

For live sub-satellite position, see the globe view (requires WebGL).

§ Visibility from observer

Set your observer location to see the next 7 days of passes ≥ 10°. The values pass through the URL so the page stays shareable.

No JS? Fill the form by hand. The geolocation button needs JavaScript.

§ Radio — SatNOGS DB

ModeDescriptionDownlinkUplink
CW Mode U - CW (interval 5min) (20 wpm, Time Unit = 60 ms, Dot = 60 ms , Dash = 180 ms, Element Gap = 60ms , Gap btw Chars = 180 ms) 400.500 MHz
GFSK Pkst UHF Telemetry | BFSK | Mod Index 1 | Data Rate 50 kbps 400.500 MHz

2 transmitters · refreshed weekly from db.satnogs.org